Погода в Кулу

Россия / Магаданская область     61°53′06″N   147°25′55″E
В апреле 2022 года жителям России запретили посещать сайт meteo.paraplan.net по решению Генеральной прокуратуры. Аудитория сайта уменьшилась в 10 раз. Владельцы сайта не видят смысла в поддержке погодного сервера в таких условиях. Сайт будет закрыт в октябре.
темп.,
°C
ветер,
м/с
пор.,
м/с
влажн.,
%
обл.,
%
осадки,
мм/ч
давл.,
гПа
погр.,
м
29 сентября, чт
чт2923:00−3св2397100 1.1 1005141
02:00−4св3298100 0.3 100544
05:00−4ссв3397100 0.5 1004110
08:00−4ссв3396100 0.7 1004165
11:00−3с3390100 1.1 1004368
14:00−2с4483100 0.1 1002641
17:00−1с4574100 0.2 1002799
20:00−6с349171 0.0 100448
30 сентября, пт
пт3023:00−6с349267 0.0 100479
02:00−7ссз339542 0.0 100533
05:00−8ссз229668 0.0 100621
08:00−8ссз229636 0.0 100632
11:00−4с348373 0.0 1005414
14:00−2с447589 0.0 1004725
17:00−2с457497 0.0 1004863
20:00−6сз229035 0.0 100616
1 октября, сб
сб123:00−8сз119537 0.0 100810
02:00−9ссз119750 0.0 100911
05:00−9ссз119754 0.0 101014
08:00−9ссз229777 0.0 101133
11:00−6с338795 0.0 1011349
14:00−4с3374100 0.0 1010742
17:00−3с337298 0.1 1011628
20:00−7с228849 0.0 101316
2 октября, вс
вс223:00−9с119228 0.0 101412
02:00−6с239393 0.0 101484
05:00−7с2295100 0.0 101556
08:00−7с2293100 0.0 1016108
11:00−5с3382100 0.0 1016508
14:00−4с3370100 0.1 1015933
17:00−4с237198 0.1 1015666
20:00−6сз118695 0.1 101710
3 октября, пн
пн323:00−7сз119088 0.1 101710
02:00−8з119573 0.0 101810
05:00−10зюз119783 0.0 101910
08:00−9зсз019584 0.1 101940
11:00−8ссз1186100 0.1 1018305
14:00−6св1173100 0.0 1014536
17:00−5св1273100 0.1 1013545
20:00−6ссв1181100 0.0 101321